GW5454 Weather Reports


Display with metric or nautical units.
time (UTC)temp
F
wind
direction
speed
MPH
gust
MPH
rain 1hr
in
rain 24hr
in
rain mn
in
humidity
%
barometer
mb
20260505121540 54 195 0.0 0.0 0.00 0.00 0.00 82 1008.3
20260505121037 54 250 0.0 0.0 0.00 0.00 0.00 82 1008.3
20260505120534 55 250 0.0 0.0 0.00 0.00 0.00 82 1008.3
20260505120029 55 250 0.0 0.0 0.00 0.00 0.00 83 1008.2
20260505115524 55 250 0.0 0.0 0.00 0.00 0.00 83 1008.2
20260505115022 55 250 0.0 0.0 0.00 0.00 0.00 84 1008.2
20260505114519 55 250 0.0 0.0 0.00 0.00 0.00 84 1008.0
20260505114015 55 250 0.0 0.0 0.00 0.00 0.00 84 1007.9
20260505113512 55 250 0.0 0.0 0.00 0.00 0.00 83 1008.1
20260505113009 55 250 0.0 0.0 0.00 0.00 0.00 83 1008.1
20260505112505 55 250 0.0 0.0 0.00 0.00 0.00 82 1008.0
20260505112003 55 250 0.0 0.0 0.00 0.00 0.00 81 1007.8
20260505111501 56 250 0.0 0.0 0.00 0.00 0.00 81 1007.6
20260505110958 56 250 0.0 0.0 0.00 0.00 0.00 80 1007.8
20260505110455 56 250 0.0 0.0 0.00 0.00 0.00 79 1007.6
20260505101927 57 250 1.0 2.0 0.00 0.00 0.00 79 1006.7
20260505101426 57 250 1.0 2.0 0.00 0.00 0.00 79 1006.8
20260505100922 57 195 0.0 0.0 0.00 0.00 0.00 78 1006.6
20260505100419 57 192 0.0 0.0 0.00 0.00 0.00 78 1006.7
20260505095915 57 199 0.0 2.0 0.00 0.00 0.00 79 1006.6
20260505095412 57 190 0.0 2.0 0.00 0.00 0.00 79 1006.7
20260505094908 57 191 0.0 0.0 0.00 0.00 0.00 79 1006.6
20260505094406 57 189 0.0 0.0 0.00 0.00 0.00 78 1006.4
20260505093901 58 188 0.0 0.0 0.00 0.00 0.00 76 1006.6
20260505093359 58 189 0.0 0.0 0.00 0.00 0.00 76 1006.7
20260505092856 58 185 0.0 2.0 0.00 0.00 0.00 76 1006.5
20260505092354 59 179 0.0 0.0 0.00 0.00 0.00 75 1006.6
20260505091850 59 207 0.0 0.0 0.00 0.00 0.00 74 1006.5
20260505091348 59 186 0.0 0.0 0.00 0.00 0.00 74 1006.3
20260505090846 60 193 0.0 0.0 0.00 0.00 0.00 74 1006.6
20260505090344 60 194 0.0 0.0 0.00 0.00 0.00 73 1006.5
20260505085841 60 194 0.0 0.0 0.00 0.00 0.00 73 1006.4
20260505085339 59 192 0.0 0.0 0.00 0.00 0.00 73 1006.2
20260505084837 59 191 0.0 2.0 0.00 0.00 0.00 73 1006.3
20260505084335 59 190 0.0 0.0 0.00 0.00 0.00 73 1006.4
20260505083832 59 196 0.0 2.0 0.00 0.00 0.00 73 1006.3
20260505083329 60 190 0.0 0.0 0.00 0.00 0.00 72 1006.5
20260505082826 60 189 0.0 0.0 0.00 0.00 0.00 70 1006.2
20260505082322 61 178 0.0 0.0 0.00 0.00 0.00 70 1006.1
20260505081819 61 192 0.0 0.0 0.00 0.00 0.00 70 1006.2
20260505081315 61 190 0.0 2.0 0.00 0.00 0.00 69 1006.4
20260505080812 61 181 0.0 2.0 0.00 0.00 0.00 68 1006.1
20260505080308 61 190 0.0 0.0 0.00 0.00 0.00 67 1006.0
20260505075803 62 190 0.0 0.0 0.00 0.00 0.00 67 1006.1
20260505075303 62 191 0.0 0.0 0.00 0.00 0.00 66 1005.9
20260505074758 62 192 0.0 0.0 0.00 0.00 0.00 66 1005.9
20260505074255 62 189 0.0 0.0 0.00 0.00 0.00 66 1005.9
20260505073753 62 189 0.0 2.0 0.00 0.00 0.00 66 1006.1
20260505073251 61 244 2.0 2.0 0.00 0.00 0.00 67 1005.9
20260505072747 61 192 0.0 2.0 0.00 0.00 0.00 67 1005.8
20260505072243 60 198 0.0 2.0 0.00 0.00 0.00 68 1005.6
20260505071739 60 182 0.0 0.0 0.00 0.00 0.00 70 1005.6
20260505071236 60 166 0.0 0.0 0.00 0.00 0.00 69 1005.6
20260505070734 60 166 0.0 0.0 0.00 0.00 0.00 68 1005.7
20260505070230 61 166 0.0 0.0 0.00 0.00 0.00 67 1005.5
20260505065725 61 166 0.0 0.0 0.00 0.00 0.00 64 1005.5
20260505065222 62 166 0.0 0.0 0.00 0.00 0.00 63 1005.4
20260505064719 62 166 0.0 0.0 0.00 0.00 0.00 63 1005.3
20260505064217 62 166 0.0 0.0 0.00 0.00 0.00 62 1005.3
20260505063715 63 166 0.0 0.0 0.00 0.00 0.00 62 1005.1
20260505063210 63 166 0.0 0.0 0.00 0.00 0.00 61 1005.2
20260505062707 64 166 0.0 0.0 0.00 0.00 0.00 59 1005.1
20260505062205 65 166 0.0 0.0 0.00 0.00 0.00 58 1005.2
20260505061701 66 177 0.0 2.0 0.00 0.00 0.00 57 1005.1
20260505061159 67 177 0.0 0.0 0.00 0.00 0.00 55 1005.0
20260505060657 67 166 0.0 0.0 0.00 0.00 0.00 52 1004.9
20260505060153 68 166 0.0 0.0 0.00 0.00 0.00 51 1005.0
20260505055648 68 153 1.0 4.0 0.00 0.00 0.00 51 1005.0
20260505055145 68 54 4.0 5.0 0.00 0.00 0.00 51 1005.0
20260505054643 68 134 2.0 4.0 0.00 0.00 0.00 50 1005.0
20260505054141 67 174 1.0 2.0 0.00 0.00 0.00 50 1004.8
20260505053638 67 267 2.0 4.0 0.00 0.00 0.00 50 1004.8
20260505053134 68 177 0.0 0.0 0.00 0.00 0.00 48 1004.7
20260505052631 69 177 0.0 0.0 0.00 0.00 0.00 47 1004.5
20260505052129 70 176 0.0 0.0 0.00 0.00 0.00 45 1004.5
20260505051625 71 177 0.0 2.0 0.00 0.00 0.00 45 1004.5
20260505051124 72 189 0.0 0.0 0.00 0.00 0.00 43 1004.7
20260505050621 72 189 0.0 0.0 0.00 0.00 0.00 42 1004.6
20260505050120 73 173 0.0 0.0 0.00 0.00 0.00 40 1004.5
20260505041549 73 177 1.0 5.0 0.00 0.00 0.00 38 1004.3
20260505041046 73 197 0.0 2.0 0.00 0.00 0.00 37 1004.3
20260505040543 72 208 0.0 2.0 0.00 0.00 0.00 38 1004.2
20260505040041 72 196 0.0 0.0 0.00 0.00 0.00 40 1004.1
20260505035537 71 204 0.0 0.0 0.00 0.00 0.00 39 1004.3
20260505035033 71 193 0.0 2.0 0.00 0.00 0.00 38 1003.9
20260505034530 71 197 0.0 0.0 0.00 0.00 0.00 40 1004.1
20260505034027 71 196 0.0 0.0 0.00 0.00 0.00 40 1003.7
20260505033524 71 195 0.0 0.0 0.00 0.00 0.00 41 1003.8
20260505033022 71 195 0.0 0.0 0.00 0.00 0.00 41 1003.8
20260505032520 72 195 0.0 0.0 0.00 0.00 0.00 41 1003.9
20260505032016 72 195 0.0 0.0 0.00 0.00 0.00 41 1003.8
20260505031513 73 195 0.0 0.0 0.00 0.00 0.00 39 1003.8
20260505031009 74 195 0.0 0.0 0.00 0.00 0.00 37 1003.7
20260505030506 74 195 0.0 0.0 0.00 0.00 0.00 34 1003.6
20260505030002 76 195 0.0 0.0 0.00 0.00 0.00 34 1003.7
20260505025458 76 195 0.0 0.0 0.00 0.00 0.00 32 1003.6
20260505024958 77 195 0.0 0.0 0.00 0.00 0.00 30 1003.5
20260505024454 79 191 0.0 0.0 0.00 0.00 0.00 31 1003.6
20260505023951 80 191 0.0 0.0 0.00 0.00 0.00 27 1003.5
20260505023448 81 191 0.0 0.0 0.00 0.00 0.00 27 1003.4
20260505022946 82 193 0.0 0.0 0.00 0.00 0.00 27 1003.6
20260505022443 83 191 0.0 0.0 0.00 0.00 0.00 25 1003.7
20260505021940 83 191 0.0 0.0 0.00 0.00 0.00 24 1003.6
20260505021436 84 187 0.0 0.0 0.00 0.00 0.00 24 1003.6
20260505020932 85 190 0.0 0.0 0.00 0.00 0.00 24 1003.6
20260505020427 85 190 0.0 2.0 0.00 0.00 0.00 24 1003.6
20260505015925 86 231 1.0 5.0 0.00 0.00 0.00 22 1003.8
20260505015422 86 193 0.0 4.0 0.00 0.00 0.00 23 1003.8
20260505014919 87 187 2.0 4.0 0.00 0.00 0.00 20 1003.8
20260505014416 88 194 0.0 5.0 0.00 0.00 0.00 21 1003.9
20260505013913 89 191 0.0 4.0 0.00 0.00 0.00 21 1004.0
20260505013409 90 188 1.0 5.0 0.00 0.00 0.00 21 1004.1
20260505012908 91 198 0.0 4.0 0.00 0.00 0.00 19 1003.9
20260505012406 91 199 1.0 4.0 0.00 0.00 0.00 19 1004.2
20260505011902 92 269 4.0 5.0 0.00 0.00 0.00 18 1004.0
20260505011358 92 186 0.0 9.0 0.00 0.00 0.00 18 1004.1
20260505010854 92 187 3.0 7.0 0.00 0.00 0.00 19 1004.0
20260505010350 92 226 0.0 2.0 0.00 0.00 0.00 20 1004.2
20260505005847 93 217 4.0 5.0 0.00 0.00 0.00 19 1004.1
20260505005344 93 194 1.0 2.0 0.00 0.00 0.00 21 1004.3
20260505004841 93 195 1.0 2.0 0.00 0.00 0.00 21 1004.2
20260505004337 92 193 0.0 2.0 0.00 0.00 0.00 23 1004.4
20260505003835 92 195 1.0 2.0 0.00 0.00 0.00 22 1004.4
20260505003332 92 194 2.0 4.0 0.00 0.00 0.00 21 1004.2
20260505002828 92 195 1.0 2.0 0.00 0.00 0.00 21 1004.3
20260505002325 91 190 1.0 2.0 0.00 0.00 0.00 23 1004.4
20260505001823 91 194 1.0 4.0 0.00 0.00 0.00 21 1004.3
20260505001320 91 169 3.0 5.0 0.00 0.00 0.00 21 1004.5
20260505000817 91 156 3.0 5.0 0.00 0.00 0.00 22 1004.5
20260505000315 90 176 1.0 4.0 0.00 0.00 0.00 24 1004.5
20260504235811 90 168 2.0 5.0 0.00 0.00 0.00 22 1004.5
20260504235308 90 162 4.0 5.0 0.00 0.00 0.00 21 1004.6
20260504234805 91 126 2.0 5.0 0.00 0.00 0.00 22 1004.7
20260504234303 92 182 1.0 4.0 0.00 0.00 0.00 22 1004.7
20260504233759 92 182 1.0 2.0 0.00 0.00 0.00 23 1004.6
20260504233255 92 173 1.0 4.0 0.00 0.00 0.00 23 1004.7
20260504232752 93 165 3.0 5.0 0.00 0.00 0.00 20 1004.6
20260504232249 94 176 5.0 5.0 0.00 0.00 0.00 20 1004.8
20260504231746 93 166 1.0 4.0 0.00 0.00 0.00 21 1004.6
20260504231242 93 195 2.0 4.0 0.00 0.00 0.00 23 1004.8
20260504230738 91 180 1.0 2.0 0.00 0.00 0.00 23 1005.0
20260504230237 90 189 1.0 4.0 0.00 0.00 0.00 23 1004.9
20260504225735 88 178 2.0 4.0 0.00 0.00 0.00 25 1005.0
20260504225231 89 172 2.0 5.0 0.00 0.00 0.00 26 1005.1
20260504224728 90 170 4.0 5.0 0.00 0.00 0.00 22 1005.1
20260504224226 92 178 4.0 5.0 0.00 0.00 0.00 22 1005.2
20260504223722 93 172 4.0 5.0 0.00 0.00 0.00 23 1005.2
20260504223217 93 176 2.0 4.0 0.00 0.00 0.00 24 1005.0
20260504222714 92 185 2.0 5.0 0.00 0.00 0.00 22 1005.3
20260504222211 92 165 2.0 4.0 0.00 0.00 0.00 22 1005.4
20260504221709 92 205 2.0 4.0 0.00 0.00 0.00 22 1005.6
20260504221206 91 188 2.0 2.0 0.00 0.00 0.00 23 1005.6
20260504220702 90 203 1.0 2.0 0.00 0.00 0.00 24 1005.6
20260504220200 90 193 3.0 4.0 0.00 0.00 0.00 22 1005.7
20260504215656 89 190 0.0 2.0 0.00 0.00 0.00 25 1005.7
20260504215154 89 181 1.0 5.0 0.00 0.00 0.00 24 1005.8
20260504214649 90 164 2.0 5.0 0.00 0.00 0.00 23 1006.0
20260504214146 92 185 5.0 5.0 0.00 0.00 0.00 20 1005.8
20260504213642 92 196 1.0 4.0 0.00 0.00 0.00 24 1006.1
20260504213139 92 196 4.0 5.0 0.00 0.00 0.00 21 1006.1
20260504212635 92 240 1.0 2.0 0.00 0.00 0.00 23 1006.2
20260504212132 91 211 3.0 5.0 0.00 0.00 0.00 20 1006.1
20260504211630 90 82 2.0 4.0 0.00 0.00 0.00 25 1006.4
20260504211126 90 289 4.0 5.0 0.00 0.00 0.00 26 1006.5
20260504210624 89 186 1.0 4.0 0.00 0.00 0.00 26 1006.3
20260504210120 89 277 6.0 9.0 0.00 0.00 0.00 22 1006.5
20260504205618 90 286 8.0 9.0 0.00 0.00 0.00 23 1006.4
20260504205115 91 227 2.0 5.0 0.00 0.00 0.00 24 1006.4
20260504204614 90 206 2.0 4.0 0.00 0.00 0.00 25 1006.7
20260504204112 90 185 0.0 4.0 0.00 0.00 0.00 27 1006.5
20260504203610 90 191 0.0 2.0 0.00 0.00 0.00 26 1006.7
20260504203108 90 197 2.0 4.0 0.00 0.00 0.00 24 1007.0
20260504202602 90 206 0.0 2.0 0.00 0.00 0.00 26 1006.7
20260504202100 89 175 1.0 5.0 0.00 0.00 0.00 31 1006.8
20260504201556 88 210 2.0 4.0 0.00 0.00 0.00 29 1006.9
20260504201054 87 186 0.0 4.0 0.00 0.00 0.00 27 1006.9
20260504200550 87 200 4.0 13.0 0.00 0.00 0.00 26 1007.0
20260504200047 87 0 2.0 4.0 0.00 0.00 0.00 27 1007.0
20260504195543 86 193 2.0 2.0 0.00 0.00 0.00 30 1007.1
20260504195040 87 283 4.0 13.0 0.00 0.00 0.00 26 1007.1
20260504194537 86 184 2.0 7.0 0.00 0.00 0.00 26 1006.9
20260504194032 86 257 5.0 7.0 0.00 0.00 0.00 25 1007.3
20260504193529 86 186 2.0 4.0 0.00 0.00 0.00 26 1007.2
20260504193028 86 203 2.0 4.0 0.00 0.00 0.00 30 1007.2
20260504192526 86 190 2.0 4.0 0.00 0.00 0.00 28 1007.2
20260504192024 85 193 3.0 5.0 0.00 0.00 0.00 27 1007.3
20260504191521 84 197 2.0 4.0 0.00 0.00 0.00 29 1007.4
20260504191017 83 192 1.0 4.0 0.00 0.00 0.00 29 1007.4
20260504190513 83 198 1.0 2.0 0.00 0.00 0.00 30 1007.3
20260504190010 82 183 1.0 4.0 0.00 0.00 0.00 35 1007.6
20260504185507 81 200 1.0 4.0 0.00 0.00 0.00 34 1007.4
20260504185003 81 218 3.0 5.0 0.00 0.00 0.00 32 1007.5
20260504184458 80 195 1.0 4.0 0.00 0.00 0.00 36 1007.7
20260504183954 80 198 4.0 5.0 0.00 0.00 0.00 37 1007.6
20260504183452 80 207 4.0 5.0 0.00 0.00 0.00 34 1007.7
20260504182949 80 208 2.0 4.0 0.00 0.00 0.00 34 1007.6
20260504182446 80 190 4.0 5.0 0.00 0.00 0.00 37 1007.5
20260504181944 80 188 2.0 4.0 0.00 0.00 0.00 36 1007.8
20260504181440 80 191 0.0 4.0 0.00 0.00 0.00 36 1007.8
20260504180939 81 187 2.0 4.0 0.00 0.00 0.00 35 1007.8
20260504180438 80 189 0.0 4.0 0.00 0.00 0.00 37 1007.7
20260504175935 80 195 1.0 2.0 0.00 0.00 0.00 36 1007.8
20260504175432 79 189 2.0 2.0 0.00 0.00 0.00 36 1007.9
20260504174930 78 190 1.0 2.0 0.00 0.00 0.00 39 1008.0
20260504174427 78 193 1.0 4.0 0.00 0.00 0.00 38 1007.9
20260504173925 78 185 1.0 4.0 0.00 0.00 0.00 38 1008.0
20260504173421 78 191 2.0 4.0 0.00 0.00 0.00 39 1008.0
20260504172919 78 190 2.0 4.0 0.00 0.00 0.00 38 1008.0
20260504172414 78 176 1.0 2.0 0.00 0.00 0.00 39 1008.1
20260504171911 76 195 2.0 4.0 0.00 0.00 0.00 41 1008.1
20260504171408 75 187 0.0 2.0 0.00 0.00 0.00 42 1008.0
20260504170905 74 187 0.0 2.0 0.00 0.00 0.00 43 1007.9
20260504170401 74 181 1.0 2.0 0.00 0.00 0.00 43 1008.1
20260504160320 67 185 3.0 4.0 0.00 0.00 0.00 52 1008.2
20260504150745 64 188 1.0 4.0 0.00 0.00 0.00 58 1008.2
20260504150242 64 187 1.0 2.0 0.00 0.00 0.00 58 1008.3
20260504141211 61 183 0.0 0.0 0.00 0.00 0.00 64 1008.0
20260504140708 61 183 0.0 0.0 0.00 0.00 0.00 65 1007.9
20260504140203 61 182 0.0 0.0 0.00 0.00 0.00 66 1007.9
20260504130632 50 180 0.0 0.0 0.00 0.00 0.00 83 1007.4
20260504130129 51 180 0.0 0.0 0.00 0.00 0.00 82 1007.4